Sea Island, GA (31561)

7:07 PM EST on March 05, 2015 (GMT -0500)
McKinnon | Change Station
CLOSE
Current Station
Airport
Location: Saint Simons Island,
Elevation: 20 ft
Nearby Weather Stations
Active Advisory: Flood Warning Active Notice: Public Information Statement

Elev 20 ft 31.15 °N, 81.39 °W | Updated 14 minutes ago

Partly Cloudy
Partly Cloudy
73 °F
Feels Like 73 °F
N
16
Wind Variable Wind from NNW
Gusts 28 mph

Today
High -- | Low -- °F
--% Chance of Precip.
Yesterday
High -- | Low -- °F
Precip. -- in
6:47 AM 6:26 PM
Full, 100% visible
Pressure 30.04 in
Visibility 10.0 miles
Clouds Scattered Clouds 4300 ft
Mostly Cloudy 5500 ft
Overcast 7000 ft
Dew Point 63 °F
Humidity 71%
Rainfall 0.00 in
Snow Depth Not available.
UV 0 out of 12
Pollen 10.50 out of 12
Air Quality Not available.
Flu Activity Not available.
METAR KSSI 052353Z AUTO 34014G24KT 10SM SCT043 BKN055 OVC070 23/17 A3004 RMK AO2 SLP173 T02280172 10289 20228 53022

More Conditions Fewer Conditions

Pressure 30.04 in
Visibility 10.0 miles
Clouds Scattered Clouds 4300 ft
Mostly Cloudy 5500 ft
Overcast 7000 ft
Dew Point 63 °F
Humidity 71%
Rainfall 0.00 in
Snow Depth Not available.
UV 0 out of 12
Pollen 10.50 out of 12
Air Quality Not available.
Flu Activity Not available.
METAR KSSI 052353Z AUTO 34014G24KT 10SM SCT043 BKN055 OVC070 23/17 A3004 RMK AO2 SLP173 T02280172 10289 20228 53022

More Conditions Fewer Conditions

10-Day Weather Forecast

Almanac

Astronomy

Mar. 05, 2015 Rise Set
Actual Time
Civil Twilight
Nautical Twilight
Astronomical Twilight
Moon
Length of Visible Light
Length of Day
Tomorrow will be .
, % of the Moon is Illuminated

Today's Extremes

State Highs State Lows

Community

WunderPhotos

Upload Photos

1,803,066 photos uploaded!

WunderBlogs® & News

Nearby

Air Quality

  Air Quality AQ Index Pollutant
Not available.

Snow Depth

Station Depth Elevation

Earthquake Activity

City Distance Mag. Time & Date
Minimum magnitude displayed is 2.5.

Coastal Water Temperatures

Place Temperature

Nearby Weather Stations

Flood Warning
Statement as of 9:01 AM EST on March 05, 2015

The Flood Warning continues for
the Altamaha river at Everett city.
* From this afternoon until further notice... or until the warning is
cancelled.
* At 8:15 am Thursday the stage was 12.0 feet.
* Moderate flooding is forecast.
* Flood stage is 12.0 feet.
* Forecast... rise above flood stage by this afternoon and continue to
rise to near 13.0 feet by Sunday evening.
* Impact... at 13.0 feet... water begins to encroach upon Altamaha Park
Road and Pennick Road. Portions of Altamaha Park become inundated.
* Impact... at 12.0 feet... agricultural and Timber lands flooded. Water
begins to encroach upon Altamaha Park.





               Fld observed 7am EST / 8am EDT forecast
location stg stg day time Fri Sat sun Mon Tue

Altamaha
Everett cit 12 12.0 Thu 08 am 12.3 12.6 12.9 13.0 12.9




Lat... Lon 3152 8172 3139 8162 3130 8144 3138 8142 3143 8155 3155 8162